[[{"header":{"parameterUnit":"m.s-1","parameterCategory":1,"la1":30.2991,"la2":30.254,"lo1":-89.0895,"lo2":-89.0444,"dx":0.0017,"dy":0.0017,"nx":28,"ny":28,"refTime":"2023-01-27T15:00:00:Z","depth":0,"parameterNumber":2,"parameterNumberName":"U-component_of_WINDS"},"data":[0,0,0,0,0,0,0,0,0,0,0,0,0,0,0,0,0,0,0,0,0,0,0,0,0,0,0,0,0,0,0,0,0,0,0,0,0,0,0,0,0,0,0,0,0,0,0,0,0,0,0,0,0,0,0,0,0,0,-4.8069,-4.807,0,-4.8114,-4.8115,-4.8115,-4.8018,-4.8015,-4.8011,-4.8008,-4.8053,-4.8057,-4.8061,0,0,0,0,0,0,0,0,0,0,0,0,0,-4.79,-4.7903,-4.8069,-4.807,-4.807,-4.8114,-4.8115,-4.8115,-4.8018,-4.8014,-4.8011,-4.8007,-4.8052,-4.8057,-4.8062,0,0,0,0,0,0,0,0,0,0,0,0,0,-4.7962,-4.7904,-4.8069,-4.8027,-4.8024,-4.8114,-4.8115,-4.8116,-4.8019,-4.8014,-4.801,-4.8005,-4.805,-4.8056,-4.8063,-4.8195,0,0,-4.8081,-4.8084,0,0,0,0,0,0,0,0,-4.7958,-4.7968,-4.8033,-4.803,-4.8027,-4.8056,-4.8071,-4.8142,-4.802,-4.8021,-4.8008,-4.8003,-4.8058,-4.8063,-4.8082,-4.8197,-4.8199,-4.8082,-4.8086,-4.8088,-4.809,0,0,0,0,0,0,0,-4.7954,-4.7966,-4.8087,-4.8034,-4.803,-4.8006,-4.801,-4.8084,-4.8065,-4.802,-4.8014,-4.802,-4.8055,-4.8076,-4.8082,-4.82,-4.8082,-4.8087,-4.8091,-4.8094,-4.8427,-4.8432,0,0,0,0,0,0,-4.7955,-4.7963,-4.8085,-4.8088,-4.798,-4.8013,-4.8017,-4.8051,-4.8064,-4.8062,-4.8024,-4.8016,-4.8068,-4.8075,-4.8083,-4.8239,-4.8088,-4.8094,-4.8098,-4.8422,-4.8428,-4.8434,0,0,0,0,0,0,-4.7952,-4.7967,-4.8084,-4.8024,-4.8037,-4.8021,-4.806,-4.8054,-4.8075,-4.8067,-4.8063,-4.8049,-4.8064,-4.8075,-4.8168,-4.8239,-4.8097,-4.8103,-4.8416,-4.8424,-4.8431,-4.8552,0,0,0,0,0,0,-4.7948,-4.7967,-4.8016,-4.8026,-4.804,-4.8168,-4.8064,-4.8059,-4.8086,-4.8075,-4.8089,-4.8087,-4.8062,-4.816,-4.8175,-4.8245,-4.8107,-4.8409,-4.842,-4.8429,-4.8542,-4.8563,-4.8581,0,0,0,0,0,-4.7942,-4.8048,-4.8019,-4.8035,-4.8102,-4.8172,-4.818,-4.8149,-4.8092,-4.8142,-4.8138,-4.8086,-4.823,-4.817,-4.8186,-4.826,-4.8405,-4.8417,-4.8428,-4.8533,-4.8559,-4.8581,0,0,0,0,0,0,-4.8046,-4.8048,-4.8016,-4.8129,-4.8151,-4.8155,-4.8217,-4.8178,-4.8216,-4.8204,-4.8164,-4.8168,-4.827,-4.8274,-4.8208,-4.8389,-4.8308,-4.8323,-4.8382,-4.8407,-4.8426,-4.8422,-4.8112,0,0,0,0,0,-4.8083,-4.8139,-4.8138,-4.8238,-4.8251,-4.8233,-4.8262,-4.8237,-4.8258,-4.8266,-4.8268,-4.8291,-4.8341,-4.8374,-4.842,-4.8543,-4.8545,-4.8602,-4.8622,-4.8638,-4.8651,-4.8717,-4.8742,-4.8472,-4.8472,-4.8472,0,0,-4.8157,-4.8166,-4.8204,-4.8259,-4.8273,-4.8333,-4.8241,-4.8308,-4.8351,-4.8276,-4.8364,-4.8368,-4.839,-4.8499,-4.8547,-4.8506,-4.8727,-4.8653,-4.8666,-4.867,-4.8732,-4.8757,-4.878,-4.848,-4.8478,-4.8477,0,0,-4.8324,-4.8337,-4.8421,-4.8438,-4.8461,-4.8449,-4.847,-4.8481,-4.848,-4.8569,-4.8514,-4.8566,-4.8654,-4.8672,-4.8693,-4.8871,-4.8825,-4.8887,-4.899,-4.9055,-4.9076,-4.9094,-4.9157,-4.918,-4.8901,-4.8901,-4.8901,0,-4.8414,-4.8501,-4.8469,-4.854,-4.8566,-4.8503,-4.8588,-4.8606,-4.8644,-4.8663,-4.8617,-4.8726,-4.8737,-4.885,-4.8894,-4.8913,-4.8935,-4.8884,-4.9076,-4.9094,-4.9111,-4.917,-4.9194,-4.8908,-4.8908,-4.8907,-4.8906,0,-4.8611,-4.8673,-4.8738,-4.8777,-4.8811,-4.8889,-4.8868,-4.8906,-4.888,-4.8873,-4.8965,-4.8976,-4.9023,-4.9049,-4.9022,-4.9159,-4.9132,-4.9082,-4.8999,-4.9144,-4.9199,-4.9222,-4.8919,-4.8916,-4.8914,-4.8912,0,0,-4.884,-4.8862,-4.8887,-4.8904,-4.8927,-4.8974,-4.9051,-4.9098,-4.9131,-4.9161,-4.9223,-4.93,-4.9254,-4.9278,-4.9254,-4.9311,-4.9451,-4.9254,-4.9254,-4.9289,-4.9602,-4.9638,-4.9665,-4.9423,-4.9427,-4.9431,-4.9599,0,-4.9004,-4.9134,-4.9109,-4.9236,-4.9293,-4.9236,-4.9303,-4.9325,-4.9322,-4.937,-4.9366,-4.9421,-4.9357,-4.9371,-4.9425,-4.9423,-4.9513,-4.9411,-4.9479,-4.9482,-4.9473,-4.9693,-4.9731,-4.989,-4.9621,-4.9624,-4.9627,0,-4.9211,-4.9249,-4.9383,-4.9399,-4.9422,-4.9482,-4.9524,-4.9571,-4.9595,-4.9589,-4.9618,-4.9584,-4.966,-4.9579,-4.9683,-4.9614,-4.9641,-4.9645,-4.965,-4.9653,-4.9561,-4.97,-4.9939,-4.9963,-4.9661,-4.9658,-4.9656,0,-4.9363,-4.9448,-4.9539,-4.9556,-4.9577,-4.9621,-4.9632,-4.9652,-4.9682,-4.972,-4.9739,-4.9786,-4.981,-4.9847,-4.9826,-4.9769,-4.9935,-4.9851,-4.9931,-4.9931,-4.9965,-4.9962,-5.021,-4.9987,-4.9987,-4.9987,-4.9986,0,-4.9547,-4.963,-4.9608,-4.9663,-4.9756,-4.9728,-4.982,-4.9824,-4.9843,-4.9899,-4.9854,-4.9907,-4.9878,-4.9929,-4.9914,-5.0003,-5.0015,-5.0012,-5.0006,-5.0014,-5.0014,-5.0029,-5.0016,-4.9993,-4.9991,-4.999,-4.9989,0,-4.973,-4.9719,-4.9814,-4.9828,-4.9833,-4.9901,-4.9912,-4.9965,-4.996,-5.0031,-5.0046,-5.0038,-5.0097,-5.0081,-5.0145,-5.0135,-5.0246,-5.0228,-5.0238,-5.0232,-5.0312,-5.0304,-5.0575,-5.0609,-5.0367,-5.037,-5.0372,0,-4.9846,-4.991,-4.9931,-4.9966,-4.998,-5.0037,-5.0068,-5.0044,-5.0079,-5.0114,-5.0162,-5.0217,-5.0259,-5.0356,-5.0355,-5.0404,-5.0385,-5.0477,-5.0392,-5.0399,-5.0384,-5.038,-5.0386,-5.0493,-5.0496,-5.0498,-5.05,0,-5.0054,-5.0046,-5.0094,-5.0141,-5.0181,-5.0216,-5.0247,-5.0279,-5.0257,-5.0299,-5.0359,-5.0392,-5.0458,-5.0513,-5.0559,-5.057,-5.0531,-5.0528,-5.0548,-5.0555,-5.0558,-5.0556,-5.0281,-5.052,-5.0518,-5.0517,-5.0516,-5.0515,-5.0206,-5.026,-5.0284,-5.0339,-5.0361,-5.0392,-5.0442,-5.0445,-5.0495,-5.0547,-5.053,-5.0599,-5.0624,-5.0681,-5.0699,-5.0752,-5.0717,-5.0747,-5.0754,-5.0761,-5.077,-5.0553,-5.076,-5.076,-5.0759,-5.0759,-5.0758,0,-5.0409,-5.0423,-5.0474,-5.052,-5.0565,-5.0528,-5.0561,-5.06,-5.0661,-5.0689,-5.0732,-5.0802,-5.0856,-5.0862,-5.0913,-5.0955,-5.0939,-5.0969,-5.0964,-5.0967,-5.08,-5.0776,-5.0981,-5.0981,-5.0981,-5.0981,-5.0981,-5.0981,-5.0519,-5.0609,-5.0605,-5.0705,-5.0718,-5.0785,-5.0808,-5.0837,-5.0858,-5.0938,-5.0984,-5.0988,-5.1007,-5.106,-5.1108,-5.1108,-5.1128,-5.1165,-5.1159,-5.1001,-5.0979,-5.0957,-5.0935,-5.117,-5.117,-5.1321,-5.1322,-5.1323]},{"header":{"parameterUnit":"m.s-1","parameterCategory":1,"la1":30.2991,"la2":30.254,"lo1":-89.0895,"lo2":-89.0444,"dx":0.0017,"dy":0.0017,"nx":28,"ny":28,"refTime":"2023-01-27T15:00:00:Z","depth":0,"parameterNumber":3,"parameterNumberName":"V-component_of_WINDS"},"data":[0,0,0,0,0,0,0,0,0,0,0,0,0,0,0,0,0,0,0,0,0,0,0,0,0,0,0,0,0,0,0,0,0,0,0,0,0,0,0,0,0,0,0,0,0,0,0,0,0,0,0,0,0,0,0,0,0,0,1.4951,1.495,0,1.4932,1.4931,1.4931,1.4872,1.487,1.4869,1.4868,1.4847,1.4847,1.4848,0,0,0,0,0,0,0,0,0,0,0,0,0,1.4937,1.4937,1.4951,1.495,1.495,1.4932,1.4931,1.4931,1.4872,1.487,1.4869,1.4867,1.4847,1.4847,1.4848,0,0,0,0,0,0,0,0,0,0,0,0,0,1.4933,1.4938,1.4951,1.4919,1.4915,1.4932,1.4931,1.4931,1.4872,1.487,1.4868,1.4867,1.4846,1.4847,1.4848,1.4893,0,0,1.4851,1.4852,0,0,0,0,0,0,0,0,1.4933,1.4933,1.4923,1.4921,1.4917,1.4902,1.4919,1.4918,1.4873,1.4889,1.4868,1.4866,1.4867,1.4866,1.4866,1.4892,1.4892,1.4851,1.4852,1.4852,1.4853,0,0,0,0,0,0,0,1.4934,1.4934,1.4943,1.4923,1.492,1.4905,1.4903,1.4918,1.4889,1.4887,1.4883,1.4881,1.4865,1.4866,1.4866,1.4891,1.4851,1.4852,1.4853,1.4853,1.4957,1.4959,0,0,0,0,0,0,1.4938,1.4935,1.4944,1.4942,1.4921,1.4907,1.4904,1.4909,1.4888,1.4884,1.4883,1.4879,1.4865,1.4864,1.4865,1.4918,1.4852,1.4853,1.4854,1.4955,1.4957,1.496,0,0,0,0,0,0,1.4938,1.494,1.4944,1.4937,1.4937,1.491,1.4915,1.491,1.4911,1.4885,1.488,1.489,1.4863,1.4863,1.4888,1.4917,1.4854,1.4855,1.4952,1.4956,1.4959,1.5025,0,0,0,0,0,0,1.4938,1.494,1.4957,1.4938,1.4937,1.4968,1.4917,1.4911,1.4913,1.4907,1.489,1.4885,1.4862,1.4887,1.4889,1.4917,1.4855,1.4949,1.4954,1.4957,1.502,1.503,1.5039,0,0,0,0,0,1.4938,1.4975,1.4958,1.4959,1.4958,1.4969,1.4969,1.4941,1.4915,1.4932,1.4917,1.4886,1.4913,1.4889,1.4891,1.492,1.4947,1.4952,1.4957,1.5016,1.5028,1.5039,0,0,0,0,0,0,1.4996,1.4972,1.4952,1.4985,1.498,1.4959,1.4979,1.4955,1.4957,1.4951,1.4916,1.4913,1.4943,1.4934,1.4908,1.4965,1.4926,1.4931,1.497,1.4981,1.499,1.4992,1.4856,0,0,0,0,0,1.5013,1.5025,1.5003,1.5033,1.5032,1.5007,1.5011,1.499,1.4983,1.4981,1.4967,1.4961,1.4969,1.4974,1.498,1.5019,1.5015,1.504,1.5049,1.5057,1.5062,1.5085,1.5096,1.4976,1.4976,1.4976,0,0,1.5047,1.5035,1.5044,1.5045,1.5039,1.5052,1.5005,1.502,1.5031,1.4983,1.5006,1.4996,1.4987,1.502,1.5034,1.5014,1.5095,1.5063,1.507,1.5071,1.5091,1.5103,1.5113,1.4979,1.4978,1.4978,0,0,1.5117,1.5109,1.5134,1.513,1.5122,1.5105,1.5112,1.5096,1.5088,1.5111,1.5076,1.5088,1.5101,1.5097,1.5097,1.517,1.5143,1.5173,1.5221,1.5244,1.5254,1.5262,1.529,1.53,1.5178,1.5178,1.5178,0,1.516,1.5179,1.5151,1.517,1.5172,1.5131,1.5158,1.5155,1.5149,1.5151,1.5129,1.5147,1.5138,1.5171,1.5189,1.519,1.5197,1.5174,1.5255,1.5263,1.527,1.5296,1.5306,1.5182,1.5181,1.5181,1.5181,0,1.5234,1.5249,1.527,1.5268,1.5272,1.5295,1.5271,1.5279,1.5259,1.5245,1.527,1.5259,1.5263,1.5269,1.5249,1.53,1.5288,1.5261,1.522,1.5286,1.531,1.5319,1.5187,1.5186,1.5185,1.5184,0,0,1.5338,1.5322,1.533,1.533,1.532,1.533,1.5352,1.5357,1.5366,1.5364,1.5382,1.5396,1.5372,1.5372,1.5351,1.5371,1.5433,1.5342,1.5341,1.536,1.5491,1.5512,1.5524,1.5415,1.5416,1.5418,1.5492,0,1.5405,1.5442,1.5419,1.546,1.5474,1.5437,1.5457,1.5453,1.5442,1.5452,1.5439,1.545,1.5416,1.5417,1.5435,1.5421,1.5458,1.5415,1.5432,1.5433,1.5436,1.5536,1.5558,1.5629,1.5501,1.5503,1.5504,0,1.5488,1.5492,1.5535,1.5525,1.553,1.5548,1.5553,1.5563,1.5559,1.5549,1.5552,1.5527,1.5549,1.551,1.5541,1.5512,1.5518,1.5513,1.5515,1.5516,1.5473,1.5541,1.565,1.5661,1.5518,1.5517,1.5516,0,1.5562,1.5578,1.5606,1.5607,1.5595,1.5609,1.5605,1.56,1.5605,1.5609,1.5613,1.5619,1.5622,1.5628,1.5607,1.558,1.5641,1.5599,1.5635,1.5635,1.5649,1.5648,1.5762,1.5652,1.5651,1.5651,1.5651,0,1.564,1.5668,1.564,1.5657,1.5688,1.5662,1.5694,1.5685,1.5681,1.5698,1.5666,1.5682,1.5652,1.5665,1.5648,1.5678,1.5679,1.5672,1.5668,1.5676,1.5677,1.5679,1.5674,1.5654,1.5653,1.5653,1.5652,0,1.5727,1.5709,1.5738,1.5726,1.5724,1.5748,1.5738,1.5754,1.5742,1.5763,1.5766,1.5746,1.5761,1.574,1.5751,1.574,1.5781,1.5768,1.5783,1.578,1.5817,1.5814,1.5936,1.5952,1.5831,1.5832,1.5833,0,1.5778,1.5799,1.5791,1.58,1.5799,1.5813,1.582,1.5795,1.5803,1.5803,1.582,1.5832,1.584,1.5864,1.5851,1.5861,1.5848,1.5891,1.5849,1.5858,1.5851,1.5851,1.5854,1.5899,1.5901,1.5902,1.5903,0,1.5872,1.5863,1.5874,1.5883,1.5892,1.5897,1.59,1.5909,1.5884,1.5895,1.591,1.5917,1.593,1.5943,1.5949,1.5945,1.5921,1.5916,1.5925,1.5934,1.5942,1.594,1.5807,1.5913,1.5912,1.5911,1.5911,1.591,1.5944,1.5962,1.596,1.5974,1.5974,1.5979,1.5994,1.5985,1.5997,1.6007,1.5992,1.6012,1.601,1.6017,1.6016,1.6032,1.6013,1.6025,1.6029,1.6033,1.6039,1.594,1.6032,1.6032,1.6032,1.6031,1.6031,0,1.6037,1.6035,1.6048,1.6055,1.6066,1.6043,1.6046,1.6058,1.6076,1.6077,1.6086,1.6105,1.6119,1.6108,1.6119,1.6134,1.6123,1.6138,1.6137,1.6137,1.6054,1.6046,1.6146,1.6146,1.6146,1.6146,1.6146,1.6146,1.6087,1.6118,1.6109,1.6141,1.6138,1.6158,1.6162,1.6167,1.6168,1.6191,1.6202,1.6195,1.6192,1.6204,1.6216,1.6212,1.6218,1.6237,1.623,1.6153,1.6142,1.6131,1.6124,1.6239,1.6239,1.6312,1.6312,1.6313]}]]